Location: Étang Rond
(42.7927°N, 1.0661°E)
Time: 22:44:28
(UTC+00:00)

BlueWalker 3 - Pass Details

Date: 08 November 2025
Orbit: 455 x 462 km, 53.2° (Epoch: 12 December)

Event Time Altitude Azimuth Distance (km) Brightness Sun altitude
Exits shadow 05:26:53 24° 293° (WNW) 1,012 2.9 -13.5°
Maximum altitude 05:28:54 59° 221° (SW) 539 1.9 -13.1°
Drops below altitude 10° 05:32:26 10° 141° (SE) 1,598 5.3 -12.5°
Sets 05:34:35 0° 138° (SE) 2,466 6.4 -12.1°
